Location: Bouillancy
(49.1149°N, 2.9308°E)
Time: 08:11:26
(UTC+00:00)

ARGOS - Pass Details

Date: 30 September 2020
Orbit: 821 x 834 km, 98.4° (Epoch: 29 October)

Event Time Altitude Azimuth Distance (km) Brightness Sun altitude
Rises 18:51:31 0° 161° (SSE) 3,346 6.0 -14.4°
Reaches altitude 10° 18:53:51 10° 160° (SSE) 2,419 5.3 -14.7°
Maximum altitude 18:59:13 83° 74° (ENE) 840 3.1 -15.6°
Drops below altitude 10° 19:04:39 10° 347° (NNW) 2,446 6.0 -16.5°
Sets 19:07:01 0° 347° (NNW) 3,385 6.7 -16.8°
